Hourly Weather Chakhansur

Today, 19 September, Saturday

Time Temperature Precipitation Wind Pressure Humidity
00:00 +21°C° 0 mm 10 mps 714 mmHg 22%
01:00 +19°C° 0 mm 10 mps 714 mmHg 22%
02:00 +18°C° 0 mm 8 mps 713 mmHg 22%
03:00 +17°C° 0 mm 7 mps 713 mmHg 21%
04:00 +16°C° 0 mm 5 mps 713 mmHg 21%
05:00 +16°C° 0 mm 5 mps 713 mmHg 20%
06:00 +17°C° 0 mm 5 mps 714 mmHg 20%
07:00 +17°C° 0 mm 5 mps 715 mmHg 19%
08:00 +21°C° 0 mm 5 mps 715 mmHg 17%
09:00 +25°C° 0 mm 5 mps 715 mmHg 15%
10:00 +27°C° 0 mm 5 mps 715 mmHg 13%
11:00 +30°C° 0 mm 5 mps 715 mmHg 11%
12:00 +33°C° 0 mm 4 mps 715 mmHg 10%
13:00 +36°C° 0 mm 4 mps 715 mmHg 8%
14:00 +36°C° 0 mm 4 mps 714 mmHg 8%
15:00 +37°C° 0 mm 4 mps 714 mmHg 7%
16:00 +37°C° 0 mm 4 mps 713 mmHg 7%
17:00 +34°C° 0 mm 3 mps 713 mmHg 8%
18:00 +31°C° 0 mm 3 mps 713 mmHg 9%
19:00 +28°C° 0 mm 3 mps 713 mmHg 10%
20:00 +27°C° 0 mm 3 mps 713 mmHg 10%
21:00 +25°C° 0 mm 3 mps 713 mmHg 10%
22:00 +24°C° 0 mm 3 mps 713 mmHg 10%
23:00 +22°C° 0 mm 4 mps 713 mmHg 10%

Tomorrow, 20 September, Sunday

Time Temperature Precipitation Wind Pressure Humidity
00:00 +22°C° 0 mm 4 mps 713 mmHg 10%
01:00 +21°C° 0 mm 4 mps 713 mmHg 10%
02:00 +20°C° 0 mm 4 mps 713 mmHg 11%
03:00 +19°C° 0 mm 3 mps 713 mmHg 12%
04:00 +18°C° 0 mm 3 mps 713 mmHg 12%
05:00 +19°C° 0 mm 3 mps 713 mmHg 12%
06:00 +20°C° 0 mm 3 mps 714 mmHg 12%
07:00 +20°C° 0 mm 3 mps 715 mmHg 11%
08:00 +24°C° 0 mm 3 mps 715 mmHg 9%
09:00 +27°C° 0 mm 2 mps 715 mmHg 8%
10:00 +30°C° 0 mm 2 mps 715 mmHg 6%
11:00 +32°C° 0 mm 2 mps 715 mmHg 5%
12:00 +35°C° 0 mm 1 mps 715 mmHg 5%
13:00 +37°C° 0 mm 1 mps 714 mmHg 4%
14:00 +38°C° 0 mm 2 mps 714 mmHg 4%
15:00 +39°C° 0 mm 2 mps 714 mmHg 3%
16:00 +40°C° 0 mm 2 mps 713 mmHg 3%
17:00 +37°C° 0 mm 3 mps 713 mmHg 4%
18:00 +33°C° 0 mm 3 mps 713 mmHg 5%
19:00 +29°C° 0 mm 3 mps 713 mmHg 5%
20:00 +28°C° 0 mm 4 mps 713 mmHg 6%
21:00 +27°C° 0 mm 5 mps 713 mmHg 7%
22:00 +26°C° 0 mm 6 mps 713 mmHg 8%
23:00 +24°C° 0 mm 6 mps 713 mmHg 10%

Day after tomorrow, 21 September, Monday

Time Temperature Precipitation Wind Pressure Humidity
00:00 +23°C° 0 mm 6 mps 713 mmHg 11%
01:00 +22°C° 0 mm 6 mps 713 mmHg 13%
02:00 +21°C° 0 mm 6 mps 713 mmHg 19%
03:00 +20°C° 0 mm 6 mps 713 mmHg 24%
04:00 +20°C° 0 mm 6 mps 713 mmHg 29%
05:00 +20°C° 0 mm 6 mps 713 mmHg 31%
06:00 +20°C° 0 mm 5 mps 714 mmHg 34%
07:00 +21°C° 0 mm 5 mps 714 mmHg 36%
08:00 +25°C° 0 mm 5 mps 714 mmHg 28%
09:00 +28°C° 0 mm 6 mps 715 mmHg 21%
10:00 +32°C° 0 mm 6 mps 715 mmHg 14%
11:00 +34°C° 0 mm 6 mps 715 mmHg 11%
12:00 +36°C° 0 mm 5 mps 715 mmHg 8%
13:00 +39°C° 0 mm 5 mps 714 mmHg 5%
14:00 +40°C° 0 mm 6 mps 714 mmHg 5%
15:00 +40°C° 0 mm 6 mps 713 mmHg 5%
16:00 +40°C° 0 mm 6 mps 713 mmHg 5%
17:00 +38°C° 0 mm 7 mps 713 mmHg 7%
18:00 +34°C° 0 mm 7 mps 713 mmHg 10%
19:00 +32°C° 0 mm 8 mps 713 mmHg 12%
20:00 +29°C° 0 mm 8 mps 713 mmHg 14%
21:00 +28°C° 0 mm 9 mps 713 mmHg 17%
22:00 +26°C° 0 mm 9 mps 713 mmHg 19%
23:00 +24°C° 0 mm 9 mps 713 mmHg 21%

22 September, Tuesday

Time Temperature Precipitation Wind Pressure Humidity
00:00 +24°C° 0 mm 9 mps 713 mmHg 24%
01:00 +23°C° 0 mm 9 mps 713 mmHg 26%
02:00 +22°C° 0 mm 8 mps 713 mmHg 27%
03:00 +21°C° 0 mm 8 mps 713 mmHg 28%
04:00 +21°C° 0 mm 7 mps 713 mmHg 29%
05:00 +21°C° 0 mm 7 mps 713 mmHg 28%
06:00 +21°C° 0 mm 7 mps 714 mmHg 27%
07:00 +21°C° 0 mm 6 mps 714 mmHg 26%
08:00 +24°C° 0 mm 7 mps 714 mmHg 21%
09:00 +28°C° 0 mm 7 mps 715 mmHg 17%
10:00 +32°C° 0 mm 7 mps 715 mmHg 12%
11:00 +34°C° 0 mm 7 mps 715 mmHg 10%
12:00 +36°C° 0 mm 7 mps 714 mmHg 8%
13:00 +39°C° 0 mm 6 mps 714 mmHg 6%
14:00 +40°C° 0 mm 7 mps 714 mmHg 7%
15:00 +40°C° 0 mm 7 mps 713 mmHg 7%
16:00 +40°C° 0 mm 8 mps 713 mmHg 7%
17:00 +38°C° 0 mm 8 mps 713 mmHg 10%
18:00 +34°C° 0 mm 9 mps 713 mmHg 13%
19:00 +32°C° 0 mm 9 mps 713 mmHg 16%
20:00 +31°C° 0 mm 9 mps 713 mmHg 19%
21:00 +28°C° 0 mm 9 mps 713 mmHg 22%
22:00 +27°C° 0 mm 9 mps 713 mmHg 25%
23:00 +26°C° 0 mm 10 mps 713 mmHg 26%

23 September, Wednesday

Time Temperature Precipitation Wind Pressure Humidity
00:00 +24°C° 0 mm 10 mps 712 mmHg 27%
01:00 +24°C° 0 mm 11 mps 712 mmHg 27%
02:00 +23°C° 0 mm 11 mps 712 mmHg 28%
03:00 +23°C° 0 mm 10 mps 712 mmHg 28%
04:00 +22°C° 0 mm 10 mps 712 mmHg 29%
05:00 +22°C° 0 mm 10 mps 713 mmHg 28%
06:00 +23°C° 0 mm 10 mps 713 mmHg 27%
07:00 +23°C° 0 mm 10 mps 714 mmHg 27%
08:00 +26°C° 0 mm 10 mps 714 mmHg 23%
09:00 +29°C° 0 mm 11 mps 714 mmHg 19%
10:00 +32°C° 0 mm 11 mps 714 mmHg 14%
11:00 +34°C° 0 mm 11 mps 714 mmHg 13%
12:00 +37°C° 0 mm 11 mps 714 mmHg 11%
13:00 +41°C° 0 mm 11 mps 713 mmHg 9%
14:00 +39°C° 0 mm 12 mps 713 mmHg 9%
15:00 +39°C° 0 mm 13 mps 712 mmHg 9%
16:00 +38°C° 0 mm 14 mps 712 mmHg 9%
17:00 +36°C° 0 mm 14 mps 712 mmHg 11%
18:00 +32°C° 0 mm 14 mps 712 mmHg 13%
19:00 +29°C° 0 mm 13 mps 712 mmHg 15%
20:00 +27°C° 0 mm 13 mps 712 mmHg 16%
21:00 +26°C° 0 mm 13 mps 713 mmHg 17%
22:00 +24°C° 0 mm 13 mps 713 mmHg 18%
23:00 +23°C° 0 mm 13 mps 713 mmHg 17%

24 September, Thursday

Time Temperature Precipitation Wind Pressure Humidity
00:00 +23°C° 0 mm 14 mps 713 mmHg 15%
01:00 +22°C° 0 mm 14 mps 713 mmHg 13%
02:00 +20°C° 0 mm 14 mps 713 mmHg 13%
03:00 +20°C° 0 mm 14 mps 713 mmHg 12%
04:00 +19°C° 0 mm 13 mps 713 mmHg 12%
05:00 +19°C° 0 mm 13 mps 713 mmHg 12%
06:00 +18°C° 0 mm 12 mps 713 mmHg 12%
07:00 +18°C° 0 mm 12 mps 714 mmHg 13%
08:00 +22°C° 0 mm 12 mps 714 mmHg 12%
09:00 +24°C° 0 mm 11 mps 714 mmHg 11%
10:00 +27°C° 0 mm 11 mps 715 mmHg 9%
11:00 +29°C° 0 mm 10 mps 714 mmHg 8%
12:00 +32°C° 0 mm 10 mps 714 mmHg 7%
13:00 +34°C° 0 mm 10 mps 714 mmHg 6%
14:00 +34°C° 0 mm 10 mps 714 mmHg 6%
15:00 +34°C° 0 mm 11 mps 713 mmHg 6%
16:00 +34°C° 0 mm 11 mps 713 mmHg 5%
17:00 +32°C° 0 mm 11 mps 713 mmHg 6%
18:00 +28°C° 0 mm 11 mps 713 mmHg 7%
19:00 +26°C° 0 mm 10 mps 713 mmHg 8%
20:00 +23°C° 0 mm 10 mps 713 mmHg 10%
21:00 +22°C° 0 mm 10 mps 714 mmHg 12%
22:00 +21°C° 0 mm 10 mps 714 mmHg 14%
23:00 +19°C° 0 mm 9 mps 713 mmHg 17%
Show more